TimeCDT,TemperatureF,Dew PointF,Humidity,Sea Level PressureIn,VisibilityMPH,Wind Direction,Wind SpeedMPH,Gust SpeedMPH,PrecipitationIn,Events,Conditions,WindDirDegrees,DateUTC
12:15 AM,62.6,55.4,77,29.61,10.0,South,8.1,-,N/A,,Clear,190,2013-03-22 05:15:00
12:35 AM,62.6,55.4,77,29.61,10.0,South,9.2,-,N/A,,Clear,180,2013-03-22 05:35:00
12:55 AM,62.6,55.4,77,29.61,10.0,South,9.2,-,N/A,,Clear,190,2013-03-22 05:55:00
1:15 AM,62.6,55.4,77,29.60,10.0,South,9.2,-,N/A,,Clear,190,2013-03-22 06:15:00
1:35 AM,62.6,55.4,77,29.61,10.0,South,9.2,-,N/A,,Clear,190,2013-03-22 06:35:00
1:55 AM,62.6,55.4,77,29.61,10.0,South,9.2,-,N/A,,Clear,190,2013-03-22 06:55:00
2:15 AM,62.6,55.4,77,29.60,10.0,South,9.2,-,N/A,,Clear,190,2013-03-22 07:15:00
2:35 AM,60.8,55.4,82,29.60,10.0,South,10.4,-,N/A,,Clear,190,2013-03-22 07:35:00
2:55 AM,60.8,55.4,82,29.60,10.0,South,6.9,-,N/A,,Clear,190,2013-03-22 07:55:00
3:15 AM,60.8,55.4,82,29.60,10.0,South,8.1,-,N/A,,Clear,190,2013-03-22 08:15:00
3:35 AM,60.8,55.4,82,29.60,10.0,SSW,6.9,-,N/A,,Clear,200,2013-03-22 08:35:00
3:55 AM,60.8,55.4,82,29.60,10.0,SSW,8.1,-,N/A,,Clear,200,2013-03-22 08:55:00
4:15 AM,60.8,55.4,82,29.60,10.0,SSW,8.1,-,N/A,,Clear,200,2013-03-22 09:15:00
4:35 AM,60.8,55.4,82,29.61,10.0,SSW,5.8,-,N/A,,Clear,200,2013-03-22 09:35:00
4:55 AM,59.0,55.4,88,29.61,10.0,SSW,5.8,-,N/A,,Clear,200,2013-03-22 09:55:00
5:15 AM,59.0,55.4,88,29.60,10.0,South,5.8,-,N/A,,Scattered Clouds,190,2013-03-22 10:15:00
5:35 AM,59.0,53.6,82,29.61,10.0,Calm,Calm,-,N/A,,Clear,0,2013-03-22 10:35:00
5:55 AM,59.0,55.4,88,29.62,10.0,Calm,Calm,-,N/A,,Clear,0,2013-03-22 10:55:00
6:15 AM,59.0,55.4,88,29.63,10.0,SW,5.8,-,N/A,,Clear,230,2013-03-22 11:15:00
6:35 AM,59.0,55.4,88,29.64,10.0,SW,5.8,-,N/A,,Clear,230,2013-03-22 11:35:00
6:55 AM,59.0,55.4,88,29.67,10.0,WNW,4.6,-,N/A,,Clear,290,2013-03-22 11:55:00
7:15 AM,59.0,51.8,77,29.69,10.0,NW,13.8,25.3,N/A,,Clear,320,2013-03-22 12:15:00
7:35 AM,51.8,44.6,76,29.72,10.0,NW,19.6,26.5,N/A,,Clear,310,2013-03-22 12:35:00
7:55 AM,46.4,41.0,81,29.74,10.0,NW,13.8,25.3,N/A,,Clear,320,2013-03-22 12:55:00
8:15 AM,46.4,41.0,81,29.74,10.0,NW,13.8,21.9,N/A,,Mostly Cloudy,320,2013-03-22 13:15:00
8:35 AM,46.4,41.0,81,29.76,10.0,NNW,17.3,23.0,N/A,,Overcast,330,2013-03-22 13:35:00
8:55 AM,48.2,41.0,76,29.77,10.0,NNW,15.0,28.8,N/A,,Overcast,340,2013-03-22 13:55:00
9:15 AM,48.2,41.0,76,29.78,10.0,North,19.6,24.2,N/A,,Overcast,350,2013-03-22 14:15:00
9:35 AM,48.2,41.0,76,29.80,10.0,NNW,18.4,21.9,N/A,,Overcast,340,2013-03-22 14:35:00
9:55 AM,48.2,41.0,76,29.80,10.0,North,13.8,19.6,N/A,,Overcast,350,2013-03-22 14:55:00
10:15 AM,48.2,41.0,76,29.80,10.0,North,15.0,20.7,N/A,,Overcast,350,2013-03-22 15:15:00
10:35 AM,48.2,41.0,76,29.80,10.0,North,13.8,-,N/A,,Mostly Cloudy,350,2013-03-22 15:35:00
10:55 AM,50.0,41.0,71,29.81,10.0,North,11.5,16.1,N/A,,Overcast,350,2013-03-22 15:55:00
11:15 AM,50.0,41.0,71,29.82,10.0,NNW,11.5,-,N/A,,Overcast,340,2013-03-22 16:15:00
11:35 AM,50.0,41.0,71,29.82,10.0,NNW,9.2,-,N/A,,Overcast,340,2013-03-22 16:35:00
11:55 AM,50.0,41.0,71,29.83,10.0,NNW,10.4,-,N/A,,Overcast,330,2013-03-22 16:55:00
12:15 PM,50.0,41.0,71,29.83,10.0,NNW,10.4,-,N/A,,Overcast,340,2013-03-22 17:15:00
12:35 PM,51.8,41.0,67,29.84,10.0,NNW,11.5,17.3,N/A,,Overcast,340,2013-03-22 17:35:00
12:55 PM,51.8,41.0,67,29.83,10.0,North,10.4,-,N/A,,Overcast,350,2013-03-22 17:55:00
1:15 PM,53.6,41.0,62,29.82,10.0,NNW,12.7,-,N/A,,Overcast,340,2013-03-22 18:15:00
1:35 PM,53.6,42.8,67,29.82,10.0,North,12.7,19.6,N/A,,Overcast,350,2013-03-22 18:35:00
1:55 PM,53.6,42.8,67,29.80,10.0,NNW,16.1,19.6,N/A,,Overcast,340,2013-03-22 18:55:00
2:15 PM,53.6,42.8,67,29.78,10.0,North,13.8,21.9,N/A,,Overcast,360,2013-03-22 19:15:00
2:35 PM,53.6,42.8,67,29.80,10.0,North,9.2,-,N/A,,Overcast,350,2013-03-22 19:35:00
2:55 PM,53.6,42.8,67,29.80,10.0,North,12.7,18.4,N/A,,Overcast,10,2013-03-22 19:55:00
3:15 PM,51.8,41.0,67,29.80,10.0,NNW,10.4,17.3,N/A,,Overcast,330,2013-03-22 20:15:00
3:35 PM,51.8,42.8,71,29.80,10.0,North,10.4,-,N/A,,Overcast,350,2013-03-22 20:35:00
3:55 PM,51.8,42.8,71,29.80,10.0,North,6.9,-,N/A,,Overcast,360,2013-03-22 20:55:00
4:15 PM,51.8,42.8,71,29.80,10.0,North,9.2,-,N/A,,Overcast,360,2013-03-22 21:15:00
4:35 PM,53.6,41.0,62,29.80,10.0,NNW,12.7,-,N/A,,Overcast,340,2013-03-22 21:35:00
4:55 PM,51.8,41.0,67,29.81,10.0,NNW,10.4,-,N/A,,Overcast,330,2013-03-22 21:55:00
5:15 PM,51.8,41.0,67,29.81,10.0,NNW,11.5,-,N/A,,Overcast,340,2013-03-22 22:15:00
5:35 PM,50.0,41.0,71,29.82,10.0,NNW,11.5,-,N/A,,Overcast,340,2013-03-22 22:35:00
5:55 PM,50.0,41.0,71,29.82,10.0,NNW,9.2,-,N/A,,Overcast,340,2013-03-22 22:55:00
6:15 PM,50.0,41.0,71,29.83,10.0,North,10.4,-,N/A,,Overcast,350,2013-03-22 23:15:00
6:35 PM,50.0,41.0,71,29.82,10.0,North,10.4,-,N/A,,Overcast,350,2013-03-22 23:35:00
6:55 PM,50.0,41.0,71,29.82,10.0,North,10.4,17.3,N/A,,Overcast,360,2013-03-22 23:55:00
7:15 PM,48.2,41.0,76,29.83,10.0,North,11.5,-,N/A,,Overcast,360,2013-03-23 00:15:00
7:35 PM,48.2,41.0,76,29.82,10.0,North,8.1,-,N/A,,Overcast,10,2013-03-23 00:35:00
7:55 PM,46.4,41.0,81,29.82,10.0,North,9.2,-,N/A,,Mostly Cloudy,10,2013-03-23 00:55:00
8:15 PM,46.4,41.0,81,29.82,10.0,North,8.1,-,N/A,,Scattered Clouds,360,2013-03-23 01:15:00
8:35 PM,46.4,41.0,81,29.82,10.0,North,4.6,-,N/A,,Clear,10,2013-03-23 01:35:00
8:55 PM,44.6,41.0,87,29.82,10.0,North,3.5,-,N/A,,Clear,10,2013-03-23 01:55:00
9:15 PM,44.6,41.0,87,29.83,10.0,North,3.5,-,N/A,,Clear,360,2013-03-23 02:15:00
9:35 PM,44.6,41.0,87,29.83,10.0,North,3.5,-,N/A,,Clear,10,2013-03-23 02:35:00
9:55 PM,44.6,41.0,87,29.84,10.0,Calm,Calm,-,N/A,,Clear,0,2013-03-23 02:55:00
10:15 PM,44.6,41.0,87,29.84,10.0,Calm,Calm,-,N/A,,Clear,0,2013-03-23 03:15:00
10:35 PM,42.8,39.2,87,29.85,10.0,Calm,Calm,-,N/A,,Clear,0,2013-03-23 03:35:00
10:55 PM,44.6,41.0,87,29.86,10.0,Calm,Calm,-,N/A,,Mostly Cloudy,0,2013-03-23 03:55:00
11:15 PM,44.6,42.8,93,29.85,7.0,East,3.5,-,N/A,,Overcast,80,2013-03-23 04:15:00
11:35 PM,46.4,42.8,87,29.85,7.0,East,5.8,-,N/A,,Overcast,80,2013-03-23 04:35:00
11:55 PM,46.4,42.8,87,29.85,7.0,ENE,4.6,-,N/A,,Overcast,60,2013-03-23 04:55:00